www.pogodaiklimat.ru

Погода и климат >> Архив погоды >> Французская Полинезия >> Рапа


ПОГОДА на Рапа

  • Прогноз погоды на Рапа
  • Монитор погоды на Рапа

АРХИВ ПОГОДЫ на Рапа

Время (UTC), дата Ветер
(напр.,м/с)
 
Видим.   Явления Облачность Т
(С)
Тd
(С)
f
(%)
Тe
(С)
Тes
(С)
Комфортность P
(гПа)
Po
(гПа)
Тmin
(С)
Tmax
(С)
R
(мм)
R24
(мм)
S
(см)
07 11.02 СВ 4 н/о н/о +22.5 +14.1 59 +26 +26 жарко 1019.7 1019.5
08 11.02 СВ 4 н/о н/о +22.5 +14.9 62 +26 +26 жарко 1020.0 1019.8
09 11.02 С 4
{17}
н/о н/о +22.4 +15.0 63 +26 +26 жарко 1019.4 1019.2
10 11.02 СВ 3 н/о н/о +22.2 +14.3 61 +25 +25 комфорт 1019.0 1018.8
11 11.02 СВ 2 н/о н/о +21.8 +14.4 63 +25 +25 комфорт 1018.8 1018.6
12 11.02 СВ 4
{11}
н/о н/о +21.0 +14.6 67 +24 +24 комфорт 1018.5 1018.3 +23.7 +23.7
13 11.02 С 3 н/о н/о +22.1 +14.7 63 +25 +25 комфорт 1018.3 1018.1
14 11.02 С 2 н/о н/о +22.1 +14.0 60 +25 +25 комфорт 1018.4 1018.2
15 11.02 С 3
{11}
25 км 8/8 700 м
[Cu Sc]
+22.1 +14.5 62 +25 +25 комфорт 1018.8 1018.6
16 11.02 СВ 2 30 км 6/6 600 м
[Cu Sc]
+22.1 +14.5 62 +25 +26 комфорт 1019.2 1019.0
17 11.02 С 4 35 км 6/6 600 м
[Cu Sc]
+22.6 +14.7 61 +26 +27 жарко 1019.7 1019.5
18 11.02 СВ 7
{13}
35 км 5/5 700 м
[Cu Sc]
+23.1 +15.4 62 +27 +29 душно 1019.8 1019.6
19 11.02 С 4 35 км 5/5 600 м
[Cu Sc]
+23.4 +15.4 61 +28 +33 душно 1019.7 1019.5
20 11.02 С 4 35 км 5/5 600 м
[Cu Sc]
+23.3 +15.1 60 +27 +33 душно 1019.6 1019.4
21 11.02 С 4
{17}
35 км 5/5 700 м
[Cu Sc]
+23.7 +15.2 59 +27 +34 жарко 1019.3 1019.1
22 11.02 С 4 35 км 5/5 600 м
[Cu Sc]
+23.6 +15.4 60 +27 +34 жарко 1018.9 1018.7
23 11.02 С 3 35 км 4/4 600 м
[Cu Sc]
+23.8 +14.8 57 +27 +36 жарко 1018.8 1018.6
00 12.02 С 5
{14}
35 км 4/4 700 м
[Cu med, cong]
+23.7 +16.0 62 +27 +31 жарко 1018.2 1018.0 +20.1
01 12.02 С 2 35 км 5/5 600 м
[Cu med, cong]
+23.2 +16.7 67 +28 +33 душно 1018.0 1017.8
02 12.02 С 4 н/о н/о +23.2 +15.8 63 +28 +28 душно 1017.5 1017.3
03 12.02 С 4
{19}
н/о н/о +23.0 +14.8 60 +27 +27 душно 1017.2 1017.0
04 12.02 СВ 4 н/о н/о +22.9 +15.0 61 +27 +27 душно 1017.7 1017.5
05 12.02 СВ 4 н/о н/о +22.9 +15.5 63 +27 +27 душно 1018.4 1018.2
06 12.02 СВ 6
{14}
н/о н/о +22.9 +15.7 64 +27 +27 душно 1019.1 1018.9
07 12.02 СВ 4 н/о н/о +22.7 +15.8 65 +27 +27 душно 1019.3 1019.1
08 12.02 СВ 3 н/о н/о +22.9 +16.0 65 +27 +27 душно 1019.4 1019.2
09 12.02 СВ 4
{13}
н/о н/о +22.8 +15.4 63 +27 +27 душно 1018.9 1018.7
10 12.02 СВ 3 н/о н/о +22.8 +15.4 63 +27 +27 душно 1018.6 1018.4
11 12.02 СВ 2 н/о н/о +22.5 +15.1 63 +26 +26 жарко 1017.9 1017.7
12 12.02 В 2
{9}
н/о н/о +21.3 +15.6 70 +25 +25 комфорт 1017.6 1017.4 +24.0 +24.0
13 12.02 СВ 3 н/о н/о +22.3 +16.3 69 +27 +27 душно 1017.2 1017.0
14 12.02 СВ 4 н/о н/о +22.3 +15.6 66 +26 +26 жарко 1017.3 1017.1
15 12.02 ЮЗ 1
{13}
20 км 9/9 700 м
[Cu Sc]
+21.6 +14.7 65 +25 +25 комфорт 1017.7 1017.5
16 12.02 З 1 25 км 9/9 600 м
[Cu Sc]
+20.9 +16.9 78 +26 +26 душно 1018.2 1018.0
17 12.02 С 3 30 км 9/5 600 м
[Cu Sc Ci fib]
+23.0 +16.3 66 +28 +29 душно 1018.7 1018.5
18 12.02 СВ 5
{12}
30 км 8/4 700 м
[Cu Sc Ci sp]
+23.3 +15.6 62 +28 +30 душно 1018.8 1018.6
19 12.02 СВ 3 35 км 8/4 600 м
[Cu Sc Ci fib]
+23.8 +15.8 61 +27 +33 жарко 1018.7 1018.5
20 12.02 С 3 35 км 9/4 600 м
[Cu Sc Ci fib]
+23.8 +16.1 62 +27 +34 жарко 1018.5 1018.3
21 12.02 С 4
{14}
35 км 9/4 700 м
[Cu Sc Ci fib]
+23.8 +16.6 64 +27 +35 жарко 1018.2 1018.0
22 12.02 СВ 4 н/о н/о +23.8 +16.1 62 +27 +27 жарко 1017.7 1017.5
23 12.02 С 3 35 км 9/5 600 м
[Cu Sc Ci fib]
+23.9 +16.2 62 +27 +34 жарко 1017.7 1017.5
00 13.02 СВ 6
{14}
35 км 9/6 700 м
[Cu Sc Ci fib]
+23.8 +16.8 65 +27 +29 жарко 1017.4 1017.2 +20.6
01 13.02 С 4 35 км 9/6 600 м
[Cu med, cong Ci fib]
+23.8 +17.1 66 +28 +30 душно 1016.6 1016.4
02 13.02 СВ 4 н/о н/о +23.6 +16.4 64 +27 +27 жарко 1016.6 1016.4
03 13.02 СВ 4
{14}
н/о н/о +23.4 +16.2 64 +28 +28 душно 1016.7 1016.5
04 13.02 СВ 4 н/о н/о +23.3 +15.9 63 +28 +28 душно 1016.9 1016.7
05 13.02 СВ 3 н/о н/о +23.2 +16.5 66 +28 +28 душно 1017.5 1017.3
06 13.02 СВ 7
{13}
н/о н/о +23.2 +16.5 66 +28 +28 душно 1018.0 1017.8
07 13.02 СВ 3 н/о н/о +23.1 +16.6 67 +28 +28 душно 1018.5 1018.3
08 13.02 СВ 3 н/о н/о +23.1 +16.2 65 +28 +28 душно 1018.8 1018.6
09 13.02 СВ 3
{12}
н/о н/о +23.1 +16.2 65 +28 +28 душно 1018.4 1018.2
10 13.02 СВ 3 н/о н/о +22.9 +16.0 65 +27 +27 душно 1017.9 1017.7
11 13.02 СВ 4 н/о н/о +22.9 +16.7 68 +28 +28 душно 1017.4 1017.2
12 13.02 СВ 5
{12}
н/о н/о +22.9 +16.2 66 +27 +27 душно 1017.4 1017.2 +24.3 +24.3
13 13.02 В 3 н/о н/о +22.6 +16.2 67 +27 +27 душно 1017.4 1017.2
14 13.02 СВ 3 н/о н/о +22.8 +16.1 66 +27 +27 душно 1017.7 1017.5
15 13.02 СВ 3
{13}
20 км 6/6 700 м
[Cu Sc]
+22.7 +16.0 66 +27 +27 душно 1018.2 1018.0
16 13.02 СВ 4 25 км 9/9 600 м
[Cu Sc]
+22.9 +15.7 64 +27 +27 душно 1018.4 1018.2
17 13.02 СВ 4 25 км 9/9 600 м
[Cu Sc]
+23.1 +15.9 64 +28 +28 душно 1018.9 1018.7
18 13.02 СВ 7
{14}
30 км 8/8 750 м
[Cu Sc]
+23.6 +15.9 62 +27 +27 жарко 1019.3 1019.1
19 13.02 СВ 4 30 км 6/6 600 м
[Cu Sc]
+24.1 +15.8 60 +27 +31 жарко 1019.6 1019.4
20 13.02 СВ 4 30 км 8/6 600 м
[Cu Sc Ci fib]
+24.2 +16.2 61 +28 +32 душно 1019.7 1019.5
21 13.02 СВ 3
{15}
30 км 8/6 700 м
[Cu Sc Ci fib]
+23.9 +16.9 65 +28 +34 душно 1019.6 1019.4
22 13.02 С 3 н/о н/о +24.3 +16.8 63 +28 +28 душно 1018.9 1018.7
23 13.02 С 4 35 км 8/8 600 м
[Cu Sc Ci fib]
+24.3 +17.1 64 +28 +31 душно 1018.5 1018.3
00 14.02 СВ 7
{13}
35 км 8/8 700 м
[Cu Sc Ci fib]
+24.1 +16.9 64 +28 +29 душно 1018.1 1017.9 +22.3
01 14.02 СВ 4 35 км 8/8 600 м
[Cu Sc Ci fib]
+24.0 +17.0 65 +28 +29 душно 1017.6 1017.4
02 14.02 С 4 н/о н/о +23.7 +17.0 66 +27 +27 жарко 1017.6 1017.4
03 14.02 С 3
{17}
н/о н/о +23.6 +17.1 67 +27 +27 жарко 1017.8 1017.6
04 14.02 СВ 4 н/о н/о +23.5 +17.5 69 +27 +27 душно 1017.9 1017.7
05 14.02 СВ 4 н/о н/о +23.3 +17.7 71 +29 +29 душно 1018.2 1018.0
06 14.02 СВ 8
{16}
н/о н/о +23.5 +17.5 69 +27 +27 душно 1018.7 1018.5
07 14.02 СВ 4 н/о н/о +23.3 +17.3 69 +29 +29 душно 1018.8 1018.6
08 14.02 СВ 3 н/о н/о +23.4 +17.8 71 +29 +29 душно 1019.1 1018.9
09 14.02 СВ 4
{13}
н/о н/о +23.4 +17.8 71 +29 +29 душно 1018.7 1018.5
10 14.02 СВ 3 н/о н/о +21.8 +17.6 77 +26 +26 душно 1018.2 1018.0 0.8
11 14.02 СВ 4 н/о н/о +22.9 +16.4 67 +28 +28 душно 1017.6 1017.4
12 14.02 СВ 7
{15}
н/о н/о +22.9 +16.9 69 +28 +28 душно 1017.3 1017.1 +24.4 +24.4 0.8
13 14.02 СВ 4 н/о н/о +22.9 +16.7 68 +28 +28 душно 1017.2 1017.0
14 14.02 СВ 4 н/о н/о +22.9 +16.7 68 +28 +28 душно 1017.1 1016.9
15 14.02 СВ 4
{14}
20 км 8/8 700 м
[Cu Sc]
+22.9 +15.5 63 +27 +27 душно 1017.3 1017.1
16 14.02 СВ 4 25 км 8/8 600 м
[Cu Sc]
+23.1 +16.4 66 +28 +28 душно 1017.4 1017.2
17 14.02 СВ 4 30 км 8/8 600 м
[Cu Sc]
+23.3 +16.6 66 +28 +29 душно 1018.0 1017.8
18 14.02 С 7
{16}
30 км 8/8 750 м
[Cu Sc Ci fib]
+23.7 +16.2 63 +27 +27 жарко 1018.4 1018.2
19 14.02 СВ 4 30 км 8/8 600 м
[Cu Sc Ci fib]
+23.8 +16.8 65 +27 +29 жарко 1018.5 1018.3
20 14.02 СВ 4 35 км 8/6 600 м
[Cu Sc Ci fib]
+24.2 +17.2 65 +28 +33 душно 1018.1 1017.9
21 14.02 СВ 4
{15}
35 км 8/8 700 м
[Cu Sc Ci fib]
+24.2 +17.9 68 +28 +31 душно 1017.6 1017.4
22 14.02 СВ 4 35 км 8/8 600 м
[Cu Sc Ci fib]
+24.3 +18.0 68 +29 +32 душно 1016.9 1016.7
23 14.02 СВ 3 н/о н/о +24.4 +18.6 70 +29 +29 душно 1016.2 1016.0
00 15.02 СВ 7
{14}
35 км 8/8 700 м
[Cu Sc Ci fib]
+24.2 +17.4 66 +28 +29 душно 1015.8 1015.6 +21.6
01 15.02 СВ 4 35 км 8/6 600 м
[Cu Sc Ci fib]
+24.7 +17.9 66 +29 +31 душно 1015.7 1015.5
02 15.02 СВ 4 н/о н/о +24.3 +17.3 65 +28 +28 душно 1015.4 1015.2
03 15.02 СВ 4
{18}
н/о н/о +23.7 +18.1 71 +28 +28 душно 1015.2 1015.0
04 15.02 СВ 4 н/о н/о +23.5 +17.9 71 +28 +28 душно 1016.0 1015.8
05 15.02 СВ 4 н/о н/о +23.6 +18.3 72 +28 +28 душно 1016.3 1016.1
06 15.02 СВ 7
{17}
н/о н/о +23.4 +18.3 73 +29 +29 душно 1016.3 1016.1 0.4
07 15.02 СВ 4 н/о н/о +23.5 +18.6 74 +28 +28 душно 1016.4 1016.2
08 15.02 СВ 5 н/о н/о +23.5 +18.6 74 +28 +28 душно 1016.5 1016.3
09 15.02 СВ 5
{19}
н/о н/о +23.4 +18.1 72 +29 +29 душно 1016.0 1015.8
10 15.02 СВ 5 н/о н/о +23.3 +18.0 72 +29 +29 душно 1015.8 1015.6
11 15.02 СВ 4 н/о н/о +23.3 +17.5 70 +29 +29 душно 1015.1 1014.9
12 15.02 СВ 8
{14}
н/о н/о +23.3 +18.0 72 +29 +29 душно 1014.7 1014.5 +24.8 +24.8
13 15.02 СВ 4 н/о н/о +23.3 +18.0 72 +29 +29 душно 1014.2 1014.0
14 15.02 СВ 4 н/о н/о +23.3 +17.7 71 +29 +29 душно 1014.4 1014.2
15 15.02 СВ 4
{16}
20 км 9/9 700 м
[Cu Sc]
+23.3 +17.7 71 +29 +29 душно 1014.5 1014.3
16 15.02 СВ 4 20 км 9/9 600 м
[Cu Sc]
+23.4 +17.8 71 +29 +29 душно 1014.8 1014.6
17 15.02 СВ 4 20 км 9/9 600 м
[Cu Sc]
+23.5 +18.2 72 +28 +28 душно 1014.9 1014.7
18 15.02 СВ 8
{16}
20 км 10/10 700 м
[Cu Sc]
+23.8 +17.8 69 +28 +28 душно 1015.1 1014.9
19 15.02 СВ 4 20 км 10/10 600 м
[Cu Sc]
+23.9 +18.1 70 +28 +28 душно 1015.2 1015.0
20 15.02 СВ 5 н/о н/о +24.4 +17.9 67 +29 +29 душно 1014.9 1014.7
21 15.02 СВ 4
{15}
25 км 9/9 700 м
[Cu Sc]
+24.3 +18.2 69 +29 +30 душно 1014.5 1014.3
22 15.02 СВ 4 н/о н/о +24.6 +18.3 68 +29 +29 душно 1013.9 1013.7
23 15.02 СВ 4 25 км 10/10 600 м
[Cu Sc]
+24.3 +19.4 74 +29 +29 душно 1013.2 1013.0
00 16.02 СВ 7
{16}
25 км 10/10 600 м
[Cu Sc]
+24.2 +19.1 73 +29 +29 душно 1012.8 1012.6 +22.3
01 16.02 СВ 4 25 км 10/10 600 м
[Cu Sc]
+24.2 +19.3 74 +29 +29 душно 1012.3 1012.1
02 16.02 СВ 4 н/о н/о +24.0 +19.1 74 +29 +29 душно 1011.9 1011.7
03 16.02 СВ 4
{17}
н/о н/о +24.0 +19.7 77 +29 +29 душно 1012.0 1011.8
04 16.02 СВ 5 н/о н/о +23.9 +19.6 77 +29 +29 душно 1011.8 1011.6
05 16.02 СВ 4 н/о н/о +23.8 +19.9 79 +29 +29 душно 1011.8 1011.6
06 16.02 СВ 9
{21}
н/о н/о +24.0 +20.1 79 +30 +30 очень
душно
1011.9 1011.7
07 16.02 СВ 5 н/о н/о +24.0 +20.1 79 +30 +30 очень
душно
1012.1 1011.9
08 16.02 СВ 5 н/о н/о +24.1 +20.4 80 +30 +30 очень
душно
1011.7 1011.5
09 16.02 СВ 4
{17}
н/о н/о +24.1 +20.6 81 +30 +30 очень
душно
1010.9 1010.7
10 16.02 В 3 н/о н/о +23.1 +20.2 84 +30 +30 очень
душно
1009.7 1009.5 2
11 16.02 СВ 5 н/о н/о +23.8 +20.7 83 +30 +30 очень
душно
1008.5 1008.3
12 16.02 СВ 10
{22}
н/о н/о +23.7 +20.4 82 +29 +29 душно 1007.7 1007.5 +25.2 +25.2 2
13 16.02 В 5 н/о н/о +23.1 +20.4 85 +30 +30 очень
душно
1007.8 1007.6
14 16.02 СВ 5 н/о н/о +22.8 +20.7 88 +30 +30 очень
душно
1007.8 1007.6 0.8
15 16.02 СВ 5
{22}
10 км слаб. дождь 10/10 600 м
[Cu Sc]
+22.6 +20.1 86 +29 +29 очень
душно
1007.6 1007.4 2
16 16.02 СВ 5 10 км слаб. дождь 10/10 300 м
[Cu Sc]
+22.9 +20.8 88 +30 +30 очень
душно
1007.3 1007.1 1
17 16.02 СВ 6 9000 м слаб. дождь 10/10 300 м
[Cu Sc]
+22.7 +20.6 88 +30 +30 очень
душно
1007.3 1007.1 2
18 16.02 СВ 11
{22}
9000 м слаб. дождь 10/10 330 м
[Cu Sc]
+22.7 +20.8 89 +30 +30 очень
душно
1007.0 1006.8 4
19 16.02 СВ 6 10 км слаб. дождь 10/10 300 м
[Cu Sc]
+22.8 +20.9 89 +30 +30 очень
душно
1006.8 1006.6 0.6
20 16.02 СВ 7 10 км слаб. дождь 10/10 300 м
[Cu Sc]
+23.1 +20.4 85 +30 +30 очень
душно
1006.4 1006.2 0.2
21 16.02 СВ 6
{24}
15 км в посл. час дождь 10/10 400 м
[Cu Sc]
+23.5 +20.4 83 +29 +29 душно 1005.6 1005.4 0.8
22 16.02 СВ 6 20 км 10/10 300 м
[Cu Sc]
+23.6 +20.3 82 +29 +29 душно 1004.1 1003.9
23 16.02 С 5 20 км 10/10 300 м
[Cu Sc]
+23.6 +20.1 81 +29 +29 душно 1003.5 1003.3
00 17.02 СВ 13
{30}
20 км {дождь} 10/10 400 м
[Cu Sc]
+23.4 +20.1 82 +31 +31 очень
душно
1002.7 1002.5 +22.6
01 17.02 СВ 8 15 км в посл. час ливневой дождь 10/10 300 м
[Cu Sc]
+22.7 +19.5 82 +29 +29 очень
душно
1002.7 1002.5 0.2
02 17.02 СВ 8 н/о н/о +22.5 +19.3 82 +28 +28 душно 1002.9 1002.7
03 17.02 СВ 6
{29}
н/о н/о +22.8 +19.2 80 +29 +29 очень
душно
1003.3 1003.1 0.2
04 17.02 СВ 7 н/о н/о +23.3 +19.2 78 +30 +30 очень
душно
1002.0 1001.8
05 17.02 СВ 7 н/о н/о +23.4 +18.9 76 +30 +30 очень
душно
1001.9 1001.7
06 17.02 СВ 12
{25}
н/о н/о +23.6 +19.1 76 +28 +28 душно 1003.2 1003.0
07 17.02 СВ 5 н/о н/о +23.3 +19.7 80 +30 +30 очень
душно
1003.6 1003.4
08 17.02 СВ 5 н/о н/о +23.7 +19.2 76 +29 +29 душно 1003.7 1003.5
09 17.02 С 4
{19}
н/о н/о +23.5 +19.4 78 +29 +29 душно 1003.3 1003.1
10 17.02 С 3 н/о н/о +23.3 +19.2 78 +30 +30 очень
душно
1003.0 1002.8
11 17.02 С 4 н/о н/о +22.9 +19.3 80 +29 +29 очень
душно
1002.7 1002.5
12 17.02 С 6
{18}
н/о н/о +22.8 +19.0 79 +29 +29 очень
душно
1002.5 1002.3 +23.9 +23.9
13 17.02 В 3 н/о н/о +22.6 +17.9 75 +28 +28 душно 1002.2 1002.0 0.2
14 17.02 С 2 н/о н/о +22.5 +19.5 83 +29 +29 очень
душно
1002.5 1002.3 0.8
15 17.02 С 3
{18}
9000 м слаб. дождь 10/10 540 м
[Cu Sc]
+21.6 +18.6 83 +26 +26 душно 1003.1 1002.9 2
16 17.02 СВ 3 15 км в посл. час дождь 9/9 300 м
[Cu Sc]
+22.3 +19.5 84 +28 +28 душно 1003.3 1003.1 1
17 17.02 СВ 3 25 км 9/9 300 м
[Cu Sc]
+23.7 +19.0 75 +28 +29 душно 1003.9 1003.7
18 17.02 СВ 5
{15}
30 км {ливн. осадки, дождь} 9/9 630 м
[Cu Sc]
+24.2 +18.4 70 +29 +29 душно 1004.0 1003.8 1
19 17.02 СВ 3 30 км 9/9 600 м
[Cu Sc]
+24.5 +19.1 72 +29 +31 душно 1004.3 1004.1
20 17.02 В 4 35 км 8/8 600 м
[Cu Sc]
+24.6 +18.3 68 +29 +31 душно 1004.3 1004.1
21 17.02 ЮВ 2
{15}
35 км 5/5 700 м
[Cu Sc]
+25.3 +18.5 66 +30 +41 душно 1004.0 1003.8
22 17.02 Ю 3 35 км 5/5 600 м
[Cu Sc]
+24.9 +18.1 66 +29 +38 душно 1003.8 1003.6
23 17.02 Ю 2 40 км 5/5 600 м
[Cu med, cong]
+25.2 +17.9 64 +30 +39 душно 1003.2 1003.0
00 18.02 В 5
{12}
35 км 6/6 630 м
[Cu med, cong]
+24.6 +19.0 71 +30 +33 очень
душно
1002.7 1002.5 +20.8
01 18.02 В 2 30 км 8/8 600 м
[Cu med, cong]
+24.3 +18.7 71 +29 +31 душно 1002.4 1002.2
02 18.02 В 3 н/о н/о +24.0 +18.6 72 +29 +29 душно 1002.8 1002.6
03 18.02 В 3
{12}
н/о н/о +23.8 +18.4 72 +28 +28 душно 1003.0 1002.8
05 18.02 В 3 н/о н/о +23.5 +18.4 73 +28 +28 душно 1003.6 1003.4
06 18.02 В 5
{14}
н/о н/о +23.4 +18.3 73 +29 +29 душно 1004.1 1003.9
07 18.02 ЮВ 2 н/о н/о +23.4 +18.5 74 +30 +30 очень
душно
1004.7 1004.5

 

Местоположение метеостанции Рапа (Французская Полинезия): широта -27.61 долгота -144.30 высота над уровнем моря 2 м.

В архиве по умолчанию представлена погода на Рапа за последнюю неделю. Архивные данные за месяц целиком и за предыдущие месяцы, начиная с января 2011 года, Вы можете получить, выбрав интересующий диапазон дат из раскрывающегося списка и нажав кнопку "Ввод!".


*Определитесь, кто Вы:
робот инопланетянин человек

Внимание! Время в таблицах - всемирное. Для получения местного времени необходимо прибавить поправку, которая равна -10 ч.

Смотрите также архив погоды в соседних городах и на ближайших метеорологических станциях:

Погода на Тубуаи (Французская Полинезия) (697 км)
Погода в Херехеретуэ (Французская Полинезия) (861 км)
Погода в Рикитее (Французская Полинезия) (1068 км)
Погода на Хао (Французская Полинезия) (1118 км)
Погода в Таутире (Французская Полинезия) (1204 км)
Погода в Таити Фааа (Французская Полинезия) (1244 км)
Погода на Острове Питкерн (Питкерн) (1442 км)
Погода в Бора-Бора аэропорту (Французская Полинезия) (1458 км)
Погода на Такароа (Французская Полинезия) (1462 км)
Погода в Раратонга аэропорту (Кука Острова) (1722 км)

Пояснения к столбцам:

Ветер - указаны скорость ветра в м/с - средняя за 10 мин, порывы в срок и между сроками (в фигурных скобках) и направление, откуда дует ветер: С - северный, СВ - северо-восточный, В - восточный, ЮВ - юго-восточный, Ю - южный, ЮЗ - юго-западный, З - западный, СЗ - северо-западный.
Видимость - горизонтальная дальность видимости в метрах или километрах. При видимости от 1 до 10 км при отсутствии осадков обычно наблюдается дымка, при ухудшении видимости до 1 км и менее - туман. В сухую погоду видимость может ухудшаться дымом, пылью или мглою.
Явления - указаны атмосферные явления, наблюдавшиеся в срок или в последний час перед сроком; фигурными скобками обозначены явления, наблюдавшиеся между сроками (за 1-3 часа до срока); квадратными скобками обозначены град или гололедные отложения с указанием их диаметра в мм.
Облачность - указаны через наклонную черту общая и нижняя облачность в баллах и высота нижней границы облаков в метрах; квадратными скобками обозначены формы облаков: Ci - перистые, Cs - перисто-слоистые, Cc - перисто-кучевые, Ac - высококучевые, As - высокослоистые, Sc - слоисто-кучевые, Ns - слоисто-дождевые, Cu - кучевые, Cb - кучево-дождевые. Подробнее классификацию облаков см. в Атласе облаков (PDF).
T - Температура воздуха - температура, измеренная на высоте 2 м над землей.
Td - Температура точки росы - температура, при понижении до которой содержащийся в воздухе водяной пар достигнет насыщения.
f - Относительная влажность воздуха - влажноcть воздуха, измеренная на высоте 2 м над землей.
Te - Эффективная температура - температура, которую ощущает одетый по сезону человек в тени. Характеристика душности погоды. При расчете учитывается влияние влажности воздуха и скорости ветра на теплоощущения человека.
Tes - Эффективная температура на солнце - температура, которую ощущает человек, с поправкой на солнечный нагрев. Характеристика знойности погоды. Зависит от высоты солнца над горизонтом, облачности и скорости ветра. Ночью, в пасмурную погоду, а также при ветре 12 м/с и более поправка равна нулю.
P - Атмосферное давление - приведенное к уровню моря атмосферное давление.
Po - Атмосферное давление - измеренное на уровне метеостанции атмосферное давление.
Tmin - Минимальная температура - минимум температуры воздуха на высоте 2 м над землей.
Tmax - Максимальная температура - максимум температуры воздуха на высоте 2 м над землей.
R - Количество осадков - Количество выпавших осадков за период времени, мм. При наведении курсора мыши на число - период времени, за который выпало указанное количество осадков.
R24 - Количество осадков - Количество выпавших осадков за 24 часа, мм.
S - Снежный покров - Высота снежного покрова, см. При наведении курсора мыши на число - состояние снежного покрова и степень покрытия местности в баллах.